This is the latest recevied weather packets stored in our database for station/object KE6AFE. If no packets are shown the sender has not sent any weather packets the latest 10 day(s).
| Time | Temp. | Humidity | Pressure | Rain* | Wind** | Luminosity | Snow |
|---|---|---|---|---|---|---|---|
| 1777425292 | 21.67° C | 45% | 1018.6 hPa | 0 mm | - | - | - |
| 1777424682 | 21.67° C | 44% | 1018.8 hPa | 0 mm | - | - | - |
| 1777424072 | 21.67° C | 41% | 1018.8 hPa | 0 mm | - | - | - |
| 1777423462 | 22.22° C | 39% | 1018.7 hPa | 0 mm | - | - | - |
| 1777422852 | 22.22° C | 37% | 1018.7 hPa | 0 mm | - | - | - |
| 1777422242 | 22.78° C | 36% | 1018.7 hPa | 0 mm | - | - | - |
| 1777421632 | 22.78° C | 35% | 1018.8 hPa | 0 mm | - | - | - |
| 1777421022 | 23.33° C | 36% | 1018.8 hPa | 0 mm | - | - | - |
| 1777420412 | 23.33° C | 34% | 1018.7 hPa | 0 mm | - | - | - |
| 1777419802 | 23.33° C | 35% | 1018.8 hPa | 0 mm | - | - | - |
| 1777419192 | 23.33° C | 34% | 1018.8 hPa | 0 mm | - | - | - |
| 1777418582 | 23.33° C | 33% | 1018.7 hPa | 0 mm | - | - | - |
| 1777417972 | 23.89° C | 33% | 1018.8 hPa | 0 mm | - | - | - |
| 1777417362 | 23.89° C | 34% | 1018.8 hPa | 0 mm | - | - | - |
| 1777416752 | 23.89° C | 33% | 1019 hPa | 0 mm | - | - | - |
| 1777416142 | 23.89° C | 35% | 1019 hPa | 0 mm | - | - | - |
| 1777415532 | 23.89° C | 36% | 1019 hPa | 0 mm | - | - | - |
| 1777414922 | 23.33° C | 36% | 1019.2 hPa | 0 mm | - | - | - |
| 1777414312 | 23.33° C | 37% | 1019.3 hPa | 0 mm | - | - | - |
| 1777413702 | 23.33° C | 39% | 1019.5 hPa | 0 mm | - | - | - |
| 1777413092 | 23.33° C | 41% | 1019.6 hPa | 0 mm | - | - | - |
| 1777412482 | 22.78° C | 42% | 1019.7 hPa | 0 mm | - | - | - |
| 1777411872 | 22.78° C | 42% | 1019.9 hPa | 0 mm | - | - | - |
| 1777411262 | 22.22° C | 44% | 1020 hPa | 0 mm | - | - | - |
| 1777410652 | 22.22° C | 45% | 1020.1 hPa | 0 mm | - | - | - |
* Rain latest hour (hover to see other rain measurements)
** Current wind speed in m/s (hover to see current wind gust speed)